Wind_Speed
36 36 36 37 38 38 40 41 42 42 42 43 43 43 43 43 43 43 41 40 40 40 40 40 40 40 40 40 40 40 39 39 38 37 36 36 35 34 34 33 32 32 31
34 35 36 36 37 39 40 40 41 42 42 42 43 44 44 44 44 43 42 41 41 41 40 41 41 41 40 40 40 40 41 40 40 39 38 37 36 36 35 34 34 33 33
32 34 36 37 38 38 39 41 41 42 42 43 43 44 45 46 45 44 43 41 41 42 41 41 41 42 41 40 41 40 40 40 41 41 39 39 38 37 37 37 36 36 35
31 33 34 35 37 39 39 41 42 42 42 42 43 43 45 46 46 45 44 43 41 42 42 41 41 41 40 41 42 42 41 41 41 41 41 40 39 39 38 37 37 36 36
32 33 33 34 35 37 38 39 41 42 42 43 43 44 45 46 46 46 46 45 43 43 44 43 43 43 43 42 42 43 42 42 42 41 41 40 39 40 39 38 37 37 37
32 33 33 33 34 36 37 38 39 41 42 43 43 44 44 46 48 48 47 47 45 43 43 44 44 44 45 44 43 44 44 43 42 42 42 41 41 41 40 39 39 38 38
29 30 31 33 34 35 36 38 39 40 41 42 43 44 45 47 48 48 47 47 47 46 45 45 45 46 46 45 45 45 45 45 44 43 42 42 42 42 42 42 41 41 39
27 29 30 32 33 35 36 37 39 40 42 42 43 44 45 46 47 47 47 46 47 47 47 45 46 47 47 47 46 46 46 45 45 45 44 44 45 44 44 44 43 43 42
28 29 30 30 32 35 36 38 38 40 42 43 42 42 44 44 45 46 46 45 45 46 46 46 47 48 47 46 46 46 46 45 46 45 45 45 46 47 46 46 45 44 44
27 29 30 30 31 33 36 37 38 40 41 42 41 40 41 43 44 44 45 45 44 45 45 45 46 47 48 47 47 47 47 46 46 47 47 47 47 47 48 47 46 46 45
26 27 29 29 30 32 34 36 37 38 40 41 41 41 41 42 43 43 44 45 45 46 47 47 47 46 46 47 46 46 45 46 45 45 46 47 48 48 48 47 47 46 46
26 26 27 29 30 31 33 35 37 38 40 41 41 41 42 43 43 44 45 45 45 45 46 47 48 48 47 46 46 46 46 46 45 45 45 45 46 46 46 47 47 47 47
26 26 26 28 30 31 32 33 36 38 39 41 42 42 42 43 44 45 45 45 44 44 45 45 45 46 47 47 46 47 48 48 47 47 47 46 46 46 47 47 47 47 47
25 25 26 28 30 31 32 32 34 36 38 40 41 42 42 43 44 45 45 46 45 45 45 45 45 45 46 47 47 48 48 48 48 48 48 48 48 47 47 47 47 48 48
25 26 26 28 29 30 30 32 34 34 37 39 41 41 41 42 44 45 44 44 44 44 44 45 45 45 45 46 46 47 48 48 48 48 48 48 49 48 48 48 48 48 48
24 25 26 26 27 28 29 31 33 34 35 37 39 41 42 43 43 44 43 42 42 42 42 44 43 43 43 45 47 47 47 47 47 47 48 48 49 49 49 49 49 49 49
25 25 26 26 26 26 28 29 32 33 34 35 37 39 41 42 43 43 44 43 42 42 42 42 43 43 43 43 45 46 46 46 46 47 48 48 48 48 49 50 50 50 50
25 25 26 26 26 27 28 29 31 32 33 35 36 38 40 40 41 42 43 43 44 43 43 42 43 43 43 43 43 43 44 45 45 45 45 47 47 47 48 49 50 50 50
26 26 26 26 26 27 28 29 30 32 33 34 35 36 38 39 40 41 42 43 44 44 43 42 43 43 43 42 42 42 42 43 43 44 45 46 47 47 48 48 49 49 49
27 27 27 27 28 29 29 30 30 32 33 34 34 34 36 38 40 41 41 42 43 42 42 42 42 42 42 41 41 41 41 42 42 43 43 43 45 45 46 47 47 48 48
28 28 28 28 29 30 31 31 31 31 32 33 34 34 35 36 38 39 41 41 41 41 41 41 42 42 42 40 40 39 39 40 41 41 41 42 45 46 47 47 48 47 47
28 28 29 30 30 31 31 31 31 31 31 32 33 34 34 35 37 38 39 40 40 40 41 41 41 41 41 40 40 40 40 39 39 40 41 42 43 45 47 48 48 47 47
29 29 29 29 30 30 30 30 30 30 30 30 30 32 33 33 35 37 38 38 39 39 40 40 41 41 41 41 40 40 40 41 41 42 41 41 43 44 45 45 46 45 45
30 30 30 29 29 29 30 30 30 30 30 30 30 31 32 33 34 35 37 38 39 38 39 39 40 41 42 43 43 44 43 42 41 41 41 42 42 43 43 43 44 43 43
29 30 30 30 30 29 29 30 30 29 30 30 30 30 30 31 32 33 35 37 38 38 38 38 38 39 41 42 44 44 43 43 43 42 42 42 43 42 42 43 43 43 43
29 29 29 30 30 30 30 30 30 29 28 29 29 29 29 30 32 33 34 36 37 37 37 38 38 39 40 41 42 43 42 42 42 43 42 42 42 42 42 42 42 43 43
Wind_Direction
252 250 250 250 246 243 240 240 239 238 239 241 240 240 239 240 241 243 244 246 245 244 243 243 244 245 246 245 245 245 247 248 248 248 249 250 251 251 253 254 255 255 255
251 249 248 250 248 244 241 239 239 239 239 241 241 240 240 240 241 243 243 245 245 244 243 245 246 246 247 247 247 247 247 248 248 249 250 250 251 252 253 254 254 254 255
250 248 248 249 247 245 243 240 239 239 239 241 241 240 240 240 240 242 243 245 244 243 243 244 245 246 247 248 249 249 249 248 249 250 251 251 252 253 252 252 254 255 256
251 250 249 249 246 245 244 241 240 239 239 240 240 240 240 241 241 242 243 245 245 243 242 244 245 244 245 247 248 249 250 250 249 250 251 251 253 254 255 254 255 255 256
253 253 252 250 246 245 244 241 239 238 239 239 240 241 241 241 241 242 243 245 246 245 243 244 245 245 246 247 248 249 249 249 249 249 249 249 251 253 255 254 255 255 256
255 256 253 250 247 244 242 240 239 238 239 240 240 241 242 242 242 242 244 244 245 246 245 245 245 245 246 248 249 248 249 249 249 249 249 249 251 252 254 254 255 256 256
257 255 254 251 248 244 241 240 239 239 239 240 241 242 244 244 243 243 244 245 245 246 246 246 246 246 247 248 249 248 248 249 250 250 250 250 251 252 253 254 254 255 256
261 256 253 250 247 245 242 241 240 240 239 240 243 244 244 244 243 242 242 244 245 246 247 247 247 247 247 248 248 248 247 249 250 251 251 251 251 251 253 254 254 254 254
265 260 254 251 248 246 243 242 242 242 241 242 244 245 244 244 243 241 241 242 244 246 248 247 247 247 247 248 248 248 247 248 249 251 251 252 252 252 253 253 254 254 255
270 265 259 257 253 250 246 244 246 244 244 244 244 245 246 245 244 243 243 243 245 246 247 248 248 248 246 246 247 247 248 248 249 250 251 251 252 253 254 254 254 255 256
273 268 262 259 256 252 249 249 249 247 245 244 244 245 246 245 243 244 244 244 245 246 248 249 249 249 248 247 248 248 248 248 249 251 251 251 252 253 254 254 254 255 257
275 269 264 261 258 255 253 253 252 250 248 246 247 247 246 245 244 244 245 246 247 248 249 250 250 249 249 249 250 249 248 249 249 250 251 252 253 253 253 255 255 256 257
279 272 265 262 261 259 257 256 255 252 249 248 249 248 247 247 245 245 245 246 246 247 248 249 250 251 251 250 250 250 250 250 250 250 252 253 254 254 254 255 256 257 258
281 276 269 266 264 262 258 257 257 254 251 250 250 249 247 247 246 245 246 246 247 247 246 248 250 251 252 251 251 250 251 251 251 251 252 254 254 255 255 255 255 256 257
285 280 274 269 266 264 260 258 258 256 254 252 250 249 248 248 247 247 247 246 245 247 247 247 249 251 252 251 252 252 251 252 253 253 254 254 254 254 255 254 255 256 257
287 281 276 272 268 264 262 260 258 257 256 255 252 250 248 249 250 249 248 247 247 247 248 248 249 251 252 252 253 252 253 252 253 253 253 254 254 255 255 255 255 255 256
285 282 276 273 270 268 266 261 258 258 258 257 256 253 251 250 250 250 248 248 249 250 251 251 251 252 253 254 253 253 253 253 253 254 253 253 254 254 256 256 256 256 256
284 282 278 274 272 272 270 266 261 260 259 258 257 255 253 251 250 250 249 249 250 252 253 253 254 254 254 255 255 253 253 254 254 254 254 254 254 254 256 256 257 257 257
283 282 279 275 274 274 273 271 267 264 262 261 259 256 254 252 249 249 250 250 250 252 253 253 254 255 256 257 257 256 255 256 257 257 257 257 256 256 256 257 258 257 257
283 281 279 277 275 275 275 273 272 269 265 262 259 258 256 253 251 251 251 250 250 251 253 253 253 254 255 256 257 258 258 257 257 258 259 259 257 256 257 257 258 258 259
284 281 280 279 276 276 275 275 275 272 269 264 261 260 258 256 254 253 251 250 250 251 252 253 252 254 255 255 256 256 258 259 260 260 259 259 258 258 259 259 260 260 260
285 284 281 280 279 277 276 276 275 273 270 266 262 261 259 258 256 254 253 252 252 252 252 253 253 253 254 254 255 257 259 259 259 259 260 261 260 260 261 261 262 261 261
286 285 284 282 280 279 278 277 276 273 270 267 264 261 260 260 259 257 254 254 254 253 253 253 254 253 252 253 253 255 257 258 259 260 261 262 261 261 261 261 261 261 260
286 285 285 284 282 281 280 279 276 274 271 269 267 263 261 260 259 258 256 255 254 253 253 253 253 253 253 253 254 255 257 259 260 260 261 262 262 262 262 261 260 259 259
287 285 284 283 281 280 279 278 277 274 272 271 269 266 261 258 256 255 254 254 254 253 252 253 254 255 255 255 256 256 258 260 261 262 263 263 263 263 262 261 259 259 259
289 287 285 284 282 280 278 277 276 273 271 270 269 267 264 260 257 257 256 255 253 253 253 253 255 256 257 257 257 257 259 260 261 262 262 262 262 262 261 260 259 259 260
Height
5667 5669 5670 5672 5675 5678 5682 5686 5691 5695 5700 5704 5708 5712 5716 5720 5724 5727 5730 5733 5736 5739 5742 5745 5748 5751 5754 5758 5761 5764 5766 5769 5772 5775 5777 5779 5781 5783 5784 5786 5787 5789 5790
5657 5659 5661 5663 5665 5668 5672 5676 5681 5685 5690 5694 5698 5702 5706 5710 5714 5717 5721 5724 5727 5730 5733 5736 5739 5742 5745 5748 5752 5754 5757 5760 5763 5765 5768 5770 5772 5774 5775 5777 5779 5780 5782
5648 5650 5652 5653 5655 5658 5661 5666 5670 5675 5679 5684 5687 5691 5695 5699 5704 5707 5711 5714 5717 5720 5724 5727 5730 5733 5736 5739 5742 5745 5747 5750 5753 5755 5758 5760 5763 5765 5767 5768 5770 5771 5773
5639 5640 5642 5643 5645 5648 5651 5655 5660 5664 5669 5673 5677 5681 5685 5689 5693 5697 5701 5704 5707 5710 5713 5716 5720 5723 5726 5729 5732 5735 5738 5740 5743 5745 5747 5750 5752 5755 5757 5759 5760 5762 5763
5630 5631 5632 5634 5636 5639 5642 5645 5649 5654 5658 5662 5666 5670 5674 5678 5682 5686 5690 5694 5697 5699 5702 5706 5709 5712 5715 5718 5721 5724 5727 5729 5732 5735 5737 5739 5741 5744 5746 5749 5751 5753 5754
5622 5622 5624 5625 5627 5630 5632 5636 5639 5643 5647 5651 5655 5659 5663 5666 5671 5675 5679 5683 5686 5689 5692 5696 5699 5702 5705 5708 5710 5713 5716 5718 5721 5724 5726 5729 5731 5734 5736 5738 5740 5742 5744
5615 5615 5616 5617 5618 5620 5623 5626 5630 5633 5637 5640 5644 5647 5651 5654 5659 5663 5667 5671 5675 5678 5681 5684 5688 5691 5694 5697 5699 5702 5705 5707 5710 5713 5715 5718 5721 5723 5725 5727 5730 5732 5734
5607 5607 5607 5608 5609 5611 5614 5617 5620 5623 5626 5630 5633 5636 5639 5642 5646 5651 5656 5660 5664 5667 5670 5673 5676 5680 5682 5685 5688 5691 5694 5696 5699 5701 5704 5707 5709 5711 5714 5716 5718 5721 5723
5600 5600 5600 5600 5601 5603 5605 5607 5610 5613 5616 5620 5622 5625 5628 5630 5634 5639 5643 5648 5652 5655 5659 5662 5665 5668 5671 5674 5676 5679 5682 5685 5687 5690 5692 5695 5697 5699 5702 5704 5706 5709 5711
5593 5592 5593 5593 5594 5595 5596 5598 5600 5603 5606 5609 5612 5614 5617 5619 5623 5627 5631 5636 5640 5644 5647 5650 5653 5656 5659 5662 5664 5667 5670 5673 5675 5678 5681 5683 5685 5687 5689 5692 5694 5696 5698
5586 5585 5585 5585 5586 5587 5588 5589 5591 5593 5596 5598 5601 5603 5606 5609 5612 5615 5620 5624 5628 5632 5635 5638 5641 5644 5647 5650 5653 5656 5658 5661 5663 5666 5669 5671 5673 5675 5677 5679 5682 5684 5685
5578 5578 5578 5578 5578 5579 5580 5581 5582 5584 5586 5588 5590 5593 5595 5598 5601 5605 5609 5613 5617 5620 5623 5627 5630 5633 5635 5638 5641 5644 5647 5649 5652 5654 5656 5659 5661 5663 5665 5667 5669 5671 5673
5572 5571 5570 5570 5570 5571 5571 5572 5573 5575 5576 5578 5580 5582 5584 5587 5590 5594 5597 5601 5605 5608 5611 5615 5618 5621 5624 5626 5629 5632 5635 5637 5640 5642 5644 5647 5649 5651 5653 5655 5657 5659 5660
5565 5564 5563 5563 5562 5563 5563 5564 5564 5565 5566 5568 5570 5572 5574 5576 5580 5583 5586 5590 5594 5597 5600 5604 5607 5609 5612 5614 5617 5619 5622 5624 5627 5629 5632 5634 5636 5638 5640 5642 5644 5646 5648
5558 5557 5556 5555 5555 5554 5555 5555 5555 5556 5557 5558 5560 5562 5563 5566 5568 5572 5575 5579 5582 5585 5588 5592 5595 5597 5600 5602 5604 5607 5609 5612 5614 5617 5619 5621 5623 5625 5627 5629 5631 5633 5634
5551 5550 5548 5547 5547 5546 5546 5547 5546 5547 5547 5548 5550 5552 5553 5556 5558 5561 5564 5567 5571 5574 5577 5580 5583 5585 5587 5590 5592 5594 5596 5599 5601 5604 5606 5608 5610 5612 5614 5615 5617 5619 5621
5544 5543 5541 5540 5539 5538 5538 5537 5538 5538 5538 5539 5540 5541 5543 5545 5548 5550 5554 5557 5560 5563 5566 5569 5572 5574 5576 5578 5580 5582 5584 5586 5588 5591 5593 5595 5597 5598 5600 5602 5603 5605 5607
5537 5535 5534 5533 5532 5530 5529 5529 5529 5529 5529 5529 5530 5531 5533 5535 5537 5540 5543 5546 5549 5552 5555 5558 5560 5562 5564 5566 5568 5570 5572 5574 5575 5577 5579 5581 5583 5585 5586 5588 5590 5591 5593
5530 5528 5527 5526 5524 5523 5522 5521 5520 5520 5520 5520 5520 5521 5522 5524 5527 5530 5532 5535 5538 5541 5544 5546 5548 5551 5553 5554 5556 5558 5560 5561 5563 5565 5566 5568 5570 5572 5573 5575 5576 5578 5579
5522 5521 5519 5518 5517 5515 5514 5513 5512 5511 5511 5510 5511 5511 5512 5514 5517 5519 5521 5523 5526 5529 5532 5534 5537 5540 5542 5543 5544 5546 5548 5550 5551 5553 5554 5555 5557 5558 5558 5560 5562 5564 5565
5514 5513 5511 5510 5508 5507 5506 5505 5503 5502 5502 5501 5501 5502 5503 5504 5506 5508 5510 5512 5515 5518 5521 5523 5526 5528 5530 5531 5533 5534 5536 5537 5539 5540 5542 5543 5544 5545 5546 5547 5549 5550 5551
5506 5504 5503 5501 5499 5498 5497 5495 5494 5493 5492 5492 5492 5493 5493 5494 5495 5497 5499 5501 5504 5507 5509 5511 5514 5516 5518 5520 5521 5523 5524 5525 5527 5528 5529 5530 5531 5532 5533 5534 5535 5536 5536
5498 5496 5494 5492 5490 5489 5487 5486 5485 5484 5483 5483 5483 5483 5484 5484 5485 5487 5489 5491 5493 5495 5498 5500 5502 5505 5506 5508 5510 5511 5512 5513 5515 5516 5517 5518 5518 5519 5520 5520 5521 5522 5523
5489 5487 5485 5483 5481 5480 5478 5477 5476 5474 5474 5473 5473 5473 5474 5475 5475 5477 5478 5480 5482 5484 5487 5489 5491 5493 5495 5496 5498 5499 5500 5502 5503 5504 5505 5505 5506 5506 5507 5507 5508 5509 5510
5480 5478 5476 5474 5472 5471 5469 5467 5466 5465 5464 5464 5464 5464 5464 5465 5466 5466 5468 5470 5471 5473 5476 5478 5480 5482 5484 5485 5486 5487 5488 5490 5491 5492 5492 5493 5493 5494 5494 5495 5496 5497 5498
5471 5469 5467 5465 5463 5461 5460 5458 5457 5456 5455 5455 5454 5454 5455 5455 5455 5456 5457 5458 5461 5462 5464 5466 5468 5470 5472 5473 5474 5475 5476 5477 5478 5479 5480 5480 5481 5481 5482 5483 5483 5484 5485